Nashville, TN

8:43 PM CST on December 13, 2019 (GMT -0600)
Nashville International

Weather History for KBNA - October, 2019

Change the Weather History Date:

Wednesday, October 30, 2019

  Actual Average Record
Temperature  
Mean Temperature 64 °F 56 °F  
Max Temperature 72 °F 67 °F 86 °F (1937)
Min Temperature 57 °F 45 °F 26 °F (1952)
Degree Days  
Heating Degree Days 0    
Month to date heating degree days 129  
Since 1 July heating degree days 129  
Cooling Degree Days 0    
Month to date cooling degree days 109  
Year to date cooling degree days 2280  
Growing Degree Days 14 (Base 50)    
Moisture  
Dew Point 59 °F    
Average Humidity 88    
Maximum Humidity 93    
Minimum Humidity 79    
Precipitation  
Precipitation 0.66 in 0.10 in 2.02 in (1949)
Month to date precipitation 5.51 2.93  
Year to date precipitation 52.93 38.59  
Sea Level Pressure  
Sea Level Pressure 29.96 in    
Wind  
Wind Speed 3 mph ()    
Max Wind Speed 12 mph    
Max Gust Speed 15 mph    
Visibility 4.5 miles    
Events Rain    
T = Trace of Precipitation, MM = Missing Value Source: Averaged Metar Reports

Daily Weather History Graph

Daily Weather History Graph

Search for Another Location

Airport or City:

Astronomy

Oct. 30, 2019 Rise Set
Actual Time 7:07 AM CDT 5:52 PM CDT
Civil Twilight 6:40 AM CDT 6:19 PM CDT
Nautical Twilight 6:10 AM CDT 6:49 PM CDT
Astronomical Twilight 5:40 AM CDT 7:19 PM CDT
Moon 9:46 AM CDT (10/30) 8:04 PM CDT (10/30)
Length of Visible Light 11h 38m
Length of Day
10h 45m
Waxing Crescent, 9% of the Moon is Illuminated
Oct 30
Waxing Crescent
Nov 4
First Quarter
Nov 12
Full
Nov 19
Last Quarter
Nov 26
New

Hourly Weather History & Observations

Time (CDT) Temp. Dew Point Humidity Pressure Visibility Wind Dir Wind Speed Gust Speed Precip Events Conditions
12:53 AM 57.0 °F 51.1 °F 81% 30.08 in 10.0 mi Calm Calm - N/A   Mostly Cloudy
1:53 AM 57.0 °F 51.1 °F 81% 30.06 in 10.0 mi NNE 5.8 mph - N/A   Overcast
2:12 AM 57.0 °F 52.0 °F 83% 30.06 in 10.0 mi NNW 5.8 mph - N/A   Overcast
2:51 AM 57.2 °F 51.8 °F 82% 30.06 in 10.0 mi NNW 3.5 mph - N/A   Overcast
2:53 AM 57.9 °F 52.0 °F 81% 30.06 in 10.0 mi NNW 4.6 mph - N/A   Overcast
3:53 AM 57.9 °F 52.0 °F 81% 30.04 in 10.0 mi NNE 3.5 mph - N/A   Overcast
4:53 AM 57.9 °F 53.1 °F 84% 30.04 in 7.0 mi Calm Calm - N/A   Overcast
4:57 AM 57.9 °F 53.1 °F 84% 30.06 in 7.0 mi Calm Calm - 0.00 in Rain Light Rain
5:17 AM 57.0 °F 54.0 °F 89% 30.05 in 1.2 mi NW 4.6 mph - 0.10 in Rain Heavy Rain
5:24 AM 57.0 °F 54.0 °F 89% 30.06 in 2.0 mi WNW 5.8 mph - 0.14 in Rain Rain
5:53 AM 57.0 °F 54.0 °F 89% 30.05 in 2.5 mi North 5.8 mph - 0.28 in Rain Rain
6:01 AM 57.0 °F 55.0 °F 93% 30.06 in 3.0 mi NNE 5.8 mph - 0.02 in Rain Light Rain
6:23 AM 57.9 °F 55.0 °F 90% 30.05 in 2.5 mi East 3.5 mph - 0.07 in Rain Light Rain
6:53 AM 57.9 °F 55.0 °F 90% 30.04 in 3.0 mi East 5.8 mph - 0.08 in   Overcast
7:00 AM 57.9 °F 55.0 °F 90% 30.04 in 3.0 mi East 4.6 mph - 0.00 in Rain Light Rain
7:53 AM 59.0 °F 55.9 °F 90% 30.03 in 3.0 mi East 4.6 mph - 0.03 in   Overcast
8:53 AM 60.1 °F 57.0 °F 90% 30.02 in 3.0 mi Calm Calm - N/A   Overcast
9:18 AM 60.1 °F 57.0 °F 90% 30.01 in 3.0 mi SE 3.5 mph - N/A   Overcast
9:30 AM 60.1 °F 57.0 °F 90% 30.01 in 2.5 mi Calm Calm - N/A   Overcast
9:53 AM 60.1 °F 57.0 °F 90% 29.99 in 2.5 mi SE 4.6 mph - 0.01 in Rain Rain
9:57 AM 60.1 °F 57.0 °F 90% 29.99 in 1.8 mi SE 4.6 mph - 0.02 in Rain Rain
10:17 AM 61.0 °F 57.9 °F 90% 30.00 in 3.0 mi Calm Calm - 0.07 in Rain Light Rain
10:51 AM 60.8 °F 57.2 °F 88% 29.97 in 2.5 mi ENE 3.5 mph - 0.07 in   Overcast
10:53 AM 61.0 °F 57.9 °F 90% 29.97 in 2.5 mi East 3.5 mph - 0.07 in   Overcast
10:55 AM 61.0 °F 57.9 °F 90% 29.98 in 3.0 mi East 3.5 mph - N/A   Overcast
11:43 AM 63.0 °F 59.0 °F 87% 29.96 in 2.5 mi Calm Calm - 0.01 in   Overcast
11:53 AM 63.0 °F 59.0 °F 87% 29.94 in 2.5 mi Calm Calm - 0.01 in   Overcast
12:34 PM 64.0 °F 61.0 °F 90% 29.92 in 3.0 mi Calm Calm - N/A   Overcast
12:45 PM 66.0 °F 62.1 °F 87% 29.92 in 2.5 mi Calm Calm - N/A   Overcast
12:53 PM 66.0 °F 63.0 °F 90% 29.90 in 2.5 mi Calm Calm - N/A   Overcast
1:00 PM 68.0 °F 64.0 °F 87% 29.90 in 6.0 mi SSE 5.8 mph - N/A   Overcast
1:26 PM 71.1 °F 64.9 °F 81% 29.89 in 7.0 mi Variable 4.6 mph - N/A   Mostly Cloudy
1:53 PM 71.1 °F 64.9 °F 81% 29.88 in 10.0 mi NNW 4.6 mph - N/A   Overcast
2:27 PM 66.9 °F 64.0 °F 90% 29.88 in 2.0 mi WNW 9.2 mph - 0.02 in Rain Light Rain
2:42 PM 66.9 °F 64.0 °F 90% 29.88 in 1.2 mi NW 10.4 mph - 0.06 in Rain Light Rain
2:53 PM 66.9 °F 64.0 °F 90% 29.88 in 1.5 mi WNW 6.9 mph - 0.09 in Rain Rain
2:58 PM 66.9 °F 64.0 °F 90% 29.89 in 1.5 mi NW 5.8 mph - 0.01 in Rain Light Rain
3:24 PM 66.0 °F 63.0 °F 90% 29.88 in 1.5 mi NW 8.1 mph - 0.05 in Rain Light Rain
3:27 PM 66.0 °F 63.0 °F 90% 29.88 in 2.0 mi NW 8.1 mph - 0.05 in Rain Light Rain
3:45 PM 64.9 °F 62.1 °F 90% 29.88 in 2.0 mi NW 5.8 mph - 0.06 in Rain Light Rain
3:53 PM 64.9 °F 62.1 °F 90% 29.87 in 2.0 mi NNW 3.5 mph - 0.07 in Rain Light Rain
4:29 PM 66.0 °F 63.0 °F 90% 29.86 in 10.0 mi ESE 3.5 mph - 0.01 in   Overcast
4:53 PM 66.0 °F 63.0 °F 90% 29.88 in 10.0 mi West 4.6 mph - 0.01 in   Overcast
5:53 PM 64.9 °F 62.1 °F 90% 29.88 in 10.0 mi South 4.6 mph - 0.00 in   Mostly Cloudy
6:53 PM 64.9 °F 62.1 °F 90% 29.91 in 10.0 mi WNW 5.8 mph - N/A   Overcast
7:10 PM 64.0 °F 61.0 °F 90% 29.91 in 10.0 mi WNW 9.2 mph - N/A   Overcast
7:53 PM 64.0 °F 61.0 °F 90% 29.91 in 10.0 mi West 3.5 mph - N/A   Overcast
8:20 PM 64.0 °F 61.0 °F 90% 29.92 in 1.5 mi Calm Calm - N/A   Overcast
8:53 PM 64.0 °F 61.0 °F 90% 29.90 in 1.5 mi Calm Calm - N/A   Overcast
9:10 PM 64.0 °F 62.1 °F 93% 29.90 in 1.5 mi Calm Calm - N/A   Overcast
9:15 PM 64.0 °F 62.1 °F 93% 29.90 in 2.0 mi South 3.5 mph - N/A   Overcast
9:53 PM 64.0 °F 61.0 °F 90% 29.89 in 2.0 mi South 3.5 mph - N/A   Overcast
10:53 PM 64.0 °F 62.1 °F 93% 29.87 in 2.0 mi Calm Calm - 0.01 in   Overcast
11:14 PM 64.0 °F 62.1 °F 93% 29.88 in 4.0 mi SSW 3.5 mph - N/A   Overcast
11:53 PM 64.9 °F 62.1 °F 90% 29.84 in 7.0 mi Calm Calm - N/A   Overcast